Location: Bassano
(45.7667°N, 11.7333°E)
Time: 11:44:24
(UTC+00:00)

SL-16 R/B - Pass Details

Date: 07 June 2020
Orbit: 842 x 846 km, 71.0° (Epoch: 01 July)

Event Time Altitude Azimuth Distance (km) Brightness Sun altitude
Exits shadow 00:22:46 22° 148° (SSE) 1,776 3.5 -19.6°
Maximum altitude 00:25:22 32° 104° (ESE) 1,423 3.4 -19.5°
Drops below altitude 10° 00:30:18 10° 44° (NE) 2,474 5.6 -19.2°
Sets 00:32:59 0° 35° (NE) 3,415 6.8 -19.0°
